Аксай

Узбекистан     39°30′00″N   66°36′43″E
темп.,
°C
ветер,
м/с
пор.,
м/с
влажн.,
%
обл.,
%
осадки,
мм/ч
давл.,
гПа
погр.,
м
27 февраля, сб
сб2723:00−6ююв124443 0.0 102921
02:00−5ююз1246100 0.0 102826
05:00−4ююз1146100 0.0 102824
08:00−3ю2340100 0.0 1029120
11:00+1ююз473599 0.0 1029790
14:00+3юз57340 0.0 10271048
17:00+3юз45360 0.0 1027829
20:00−1вюв22450 0.0 102821
28 февраля, вс
вс2823:00−1в33480 0.0 102840
02:00−1вюв22450 0.0 102621
05:000в23460 0.0 102425
08:00+2в23450 0.0 102328
11:00+9всв22310 0.0 1021411
14:00+11ссз12240 0.0 1019954
17:00+11ссв333011 0.0 1018415
20:00+6в343719 0.0 101939
1 марта, пн
пн123:00+6юв223360 0.0 101922
02:00+6юв2234100 0.0 101922
05:00+5юв223298 0.0 101922
08:00+7юв222939 0.0 101922
11:00+15ююз591819 0.0 10181503
14:00+17юз812180 0.0 10172144
17:00+16юз69220 0.0 10171050
20:00+10ююз44300 0.0 101971
2 марта, вт
вт223:00+10ююв342819 0.0 102033
02:00+10ююв122973 0.0 102022
05:00+9всв123186 0.0 102022
08:00+10в3430100 0.0 102143
11:00+15юз1122100 0.0 1021416
14:00+15з5423100 0.0 10201200
17:00+13зюз2429100 0.0 10191841
20:00+10з464697 0.0 1021185
3 марта, ср
ср323:00+9ююв125098 0.0 102125
02:00+10в2252100 0.0 102128
05:00+9всв115699 0.0 102025
08:00+9всв1159100 0.0 102138
11:00+11з3552100 0.0 10201269
14:00+12зюз5950100 0.1 10181564
17:00+12зюз4542100 0.1 10171045
20:00+8юв115193 0.0 101722